When you browse on this site, cookies collect data to enhance your experience and personalize the content and advertising you see.
Visit our Privacy Policy to learn more. By continuing to use the site, you agree to this use of cookies and data.
  • In Schweiz
  • Länderverzeichnis
  • Für 7 Tage
  • Wassertemperatur
  • Satellitenkarten
  • Wetterkarte
  • Widgets
  • user-avatar
    Anmelden

    Stündliche Wetter Pleskachivka

    Heute, 20 Juli, Samstag

    Zeit Temperatur Niederschläge Wind Luftdruck Luftfeuchtigkeit
    00:00 +16°C° 0 mm 2 m/S 747 mmHg 87%
    01:00 +16°C° 0 mm 2 m/S 747 mmHg 88%
    02:00 +16°C° 0 mm 2 m/S 747 mmHg 89%
    03:00 +16°C° 0 mm 2 m/S 747 mmHg 89%
    04:00 +16°C° 0 mm 2 m/S 747 mmHg 89%
    05:00 +16°C° 0 mm 2 m/S 748 mmHg 88%
    06:00 +16°C° 0 mm 2 m/S 748 mmHg 87%
    07:00 +18°C° 0 mm 2 m/S 748 mmHg 79%
    08:00 +20°C° 0 mm 2 m/S 748 mmHg 71%
    09:00 +24°C° 0 mm 2 m/S 749 mmHg 63%
    10:00 +25°C° 0.1 mm 3 m/S 749 mmHg 57%
    11:00 +26°C° 0.1 mm 3 m/S 749 mmHg 52%
    12:00 +27°C° 0.1 mm 4 m/S 749 mmHg 47%
    13:00 +28°C° 0 mm 4 m/S 749 mmHg 46%
    14:00 +28°C° 0 mm 4 m/S 748 mmHg 45%
    15:00 +28°C° 0 mm 4 m/S 748 mmHg 44%
    16:00 +28°C° 0 mm 4 m/S 748 mmHg 47%
    17:00 +28°C° 0 mm 3 m/S 748 mmHg 49%
    18:00 +27°C° 0 mm 3 m/S 748 mmHg 51%
    19:00 +25°C° 0 mm 3 m/S 749 mmHg 58%
    20:00 +23°C° 0 mm 2 m/S 749 mmHg 66%
    21:00 +20°C° 0 mm 2 m/S 749 mmHg 73%
    22:00 +21°C° 0 mm 1 m/S 749 mmHg 75%
    23:00 +20°C° 0 mm 1 m/S 749 mmHg 77%

    Morgen, 21 Juli, Sonntag

    Zeit Temperatur Niederschläge Wind Luftdruck Luftfeuchtigkeit
    00:00 +17°C° 0 mm 0 m/S 749 mmHg 79%
    01:00 +17°C° 0 mm 0 m/S 749 mmHg 79%
    02:00 +16°C° 0 mm 0 m/S 749 mmHg 80%
    03:00 +16°C° 0 mm 0 m/S 749 mmHg 81%
    04:00 +16°C° 0 mm 0 m/S 749 mmHg 80%
    05:00 +17°C° 0 mm 0 m/S 749 mmHg 79%
    06:00 +17°C° 0 mm 0 m/S 749 mmHg 78%
    07:00 +19°C° 0 mm 0 m/S 749 mmHg 71%
    08:00 +23°C° 0 mm 1 m/S 749 mmHg 64%
    09:00 +25°C° 0 mm 1 m/S 749 mmHg 57%
    10:00 +26°C° 0 mm 1 m/S 749 mmHg 52%
    11:00 +27°C° 0 mm 1 m/S 749 mmHg 48%
    12:00 +28°C° 0 mm 2 m/S 749 mmHg 43%
    13:00 +28°C° 0 mm 1 m/S 749 mmHg 45%
    14:00 +27°C° 0 mm 1 m/S 748 mmHg 47%
    15:00 +27°C° 0 mm 1 m/S 748 mmHg 50%
    16:00 +27°C° 0 mm 1 m/S 748 mmHg 50%
    17:00 +27°C° 0 mm 1 m/S 748 mmHg 51%
    18:00 +26°C° 0 mm 1 m/S 748 mmHg 52%
    19:00 +25°C° 0 mm 1 m/S 748 mmHg 56%
    20:00 +23°C° 0 mm 1 m/S 748 mmHg 61%
    21:00 +21°C° 0 mm 1 m/S 748 mmHg 66%
    22:00 +21°C° 0 mm 1 m/S 748 mmHg 67%
    23:00 +20°C° 0 mm 1 m/S 748 mmHg 69%

    übermorgen, 22 Juli, Montag

    Zeit Temperatur Niederschläge Wind Luftdruck Luftfeuchtigkeit
    00:00 +20°C° 0 mm 1 m/S 748 mmHg 70%
    01:00 +19°C° 0 mm 1 m/S 748 mmHg 72%
    02:00 +19°C° 0 mm 1 m/S 748 mmHg 73%
    03:00 +19°C° 0 mm 1 m/S 747 mmHg 75%
    04:00 +17°C° 0 mm 0 m/S 747 mmHg 74%
    05:00 +18°C° 0 mm 0 m/S 747 mmHg 74%
    06:00 +18°C° 0 mm 0 m/S 747 mmHg 74%
    07:00 +20°C° 0 mm 0 m/S 747 mmHg 68%
    08:00 +24°C° 0 mm 1 m/S 747 mmHg 62%
    09:00 +26°C° 0 mm 1 m/S 747 mmHg 56%
    10:00 +27°C° 0 mm 1 m/S 747 mmHg 52%
    11:00 +28°C° 0 mm 2 m/S 747 mmHg 49%
    12:00 +29°C° 0 mm 3 m/S 747 mmHg 45%
    13:00 +29°C° 0 mm 3 m/S 747 mmHg 44%
    14:00 +30°C° 0 mm 3 m/S 746 mmHg 42%
    15:00 +30°C° 0 mm 3 m/S 746 mmHg 41%
    16:00 +30°C° 0 mm 2 m/S 746 mmHg 44%
    17:00 +30°C° 0 mm 2 m/S 746 mmHg 47%
    18:00 +29°C° 0 mm 1 m/S 746 mmHg 49%
    19:00 +28°C° 0 mm 2 m/S 746 mmHg 53%
    20:00 +26°C° 0 mm 2 m/S 745 mmHg 56%
    21:00 +25°C° 0 mm 2 m/S 745 mmHg 59%
    22:00 +24°C° 0 mm 2 m/S 745 mmHg 60%
    23:00 +24°C° 0 mm 2 m/S 745 mmHg 61%

    23 Juli, Dienstag

    Zeit Temperatur Niederschläge Wind Luftdruck Luftfeuchtigkeit
    00:00 +22°C° 0 mm 3 m/S 745 mmHg 62%
    01:00 +21°C° 0 mm 2 m/S 745 mmHg 64%
    02:00 +21°C° 0 mm 2 m/S 745 mmHg 67%
    03:00 +20°C° 0 mm 2 m/S 744 mmHg 69%
    04:00 +20°C° 0.2 mm 2 m/S 744 mmHg 72%
    05:00 +20°C° 0.2 mm 2 m/S 744 mmHg 75%
    06:00 +20°C° 0.2 mm 1 m/S 744 mmHg 79%
    07:00 +21°C° 0.4 mm 1 m/S 744 mmHg 80%
    08:00 +21°C° 0.4 mm 1 m/S 744 mmHg 82%
    09:00 +21°C° 0.4 mm 1 m/S 744 mmHg 84%
    10:00 +24°C° 0.2 mm 2 m/S 744 mmHg 74%
    11:00 +26°C° 0.2 mm 2 m/S 744 mmHg 64%
    12:00 +28°C° 0.2 mm 3 m/S 744 mmHg 55%
    13:00 +28°C° 0.5 mm 3 m/S 744 mmHg 55%
    14:00 +28°C° 0.5 mm 4 m/S 743 mmHg 56%
    15:00 +28°C° 0.5 mm 5 m/S 743 mmHg 57%
    16:00 +27°C° 1.3 mm 4 m/S 743 mmHg 62%
    17:00 +25°C° 1.3 mm 3 m/S 743 mmHg 68%
    18:00 +24°C° 1.3 mm 2 m/S 743 mmHg 74%
    19:00 +23°C° 0.1 mm 2 m/S 743 mmHg 77%
    20:00 +21°C° 0.1 mm 2 m/S 743 mmHg 80%
    21:00 +20°C° 0.1 mm 2 m/S 743 mmHg 83%
    22:00 +20°C° 0.1 mm 2 m/S 744 mmHg 84%
    23:00 +20°C° 0.1 mm 2 m/S 744 mmHg 84%

    24 Juli, Mittwoch

    Zeit Temperatur Niederschläge Wind Luftdruck Luftfeuchtigkeit
    00:00 +20°C° 0.1 mm 1 m/S 744 mmHg 85%
    01:00 +20°C° 0 mm 1 m/S 744 mmHg 86%
    02:00 +19°C° 0 mm 1 m/S 744 mmHg 87%
    03:00 +19°C° 0 mm 1 m/S 743 mmHg 87%
    04:00 +17°C° 0.1 mm 0 m/S 743 mmHg 87%
    05:00 +17°C° 0.1 mm 0 m/S 744 mmHg 86%
    06:00 +18°C° 0.1 mm 0 m/S 744 mmHg 86%
    07:00 +21°C° 0 mm 1 m/S 744 mmHg 80%
    08:00 +21°C° 0 mm 2 m/S 744 mmHg 74%
    09:00 +24°C° 0 mm 3 m/S 744 mmHg 69%
    10:00 +25°C° 0 mm 3 m/S 744 mmHg 66%
    11:00 +25°C° 0 mm 3 m/S 744 mmHg 63%
    12:00 +26°C° 0 mm 3 m/S 744 mmHg 59%
    13:00 +25°C° 0.5 mm 2 m/S 744 mmHg 65%
    14:00 +24°C° 0.5 mm 1 m/S 744 mmHg 71%
    15:00 +23°C° 0.5 mm 1 m/S 744 mmHg 77%
    16:00 +23°C° 0.2 mm 2 m/S 744 mmHg 78%
    17:00 +23°C° 0.2 mm 2 m/S 744 mmHg 79%
    18:00 +22°C° 0.2 mm 3 m/S 744 mmHg 79%
    19:00 +21°C° 0 mm 3 m/S 744 mmHg 84%
    20:00 +20°C° 0 mm 2 m/S 744 mmHg 89%
    21:00 +19°C° 0 mm 2 m/S 744 mmHg 94%
    22:00 +19°C° 0.2 mm 3 m/S 744 mmHg 94%
    23:00 +19°C° 0.2 mm 3 m/S 744 mmHg 93%

    25 Juli, Donnerstag

    Zeit Temperatur Niederschläge Wind Luftdruck Luftfeuchtigkeit
    00:00 +19°C° 0.2 mm 3 m/S 744 mmHg 92%
    01:00 +19°C° 0.3 mm 4 m/S 744 mmHg 90%
    02:00 +19°C° 0.3 mm 5 m/S 744 mmHg 89%
    03:00 +19°C° 0.3 mm 5 m/S 743 mmHg 87%
    04:00 +19°C° 0.1 mm 5 m/S 743 mmHg 88%
    05:00 +19°C° 0.1 mm 4 m/S 743 mmHg 89%
    06:00 +19°C° 0.1 mm 4 m/S 743 mmHg 90%
    07:00 +20°C° 0.1 mm 4 m/S 743 mmHg 86%
    08:00 +20°C° 0.1 mm 5 m/S 743 mmHg 83%
    09:00 +21°C° 0.1 mm 5 m/S 743 mmHg 79%
    10:00 +22°C° 0 mm 5 m/S 743 mmHg 74%
    11:00 +23°C° 0 mm 6 m/S 743 mmHg 70%
    12:00 +24°C° 0 mm 6 m/S 743 mmHg 65%
    13:00 +26°C° 0 mm 7 m/S 743 mmHg 60%
    14:00 +27°C° 0 mm 8 m/S 743 mmHg 56%
    15:00 +28°C° 0 mm 9 m/S 743 mmHg 51%
    16:00 +27°C° 0 mm 7 m/S 743 mmHg 57%
    17:00 +26°C° 0 mm 6 m/S 743 mmHg 63%
    18:00 +25°C° 0 mm 4 m/S 743 mmHg 69%
    19:00 +23°C° 0 mm 4 m/S 744 mmHg 71%
    20:00 +22°C° 0 mm 4 m/S 744 mmHg 72%
    21:00 +21°C° 0 mm 4 m/S 744 mmHg 74%
    22:00 +20°C° 0.3 mm 4 m/S 745 mmHg 80%
    23:00 +19°C° 0.3 mm 4 m/S 745 mmHg 85%
    Mehr zeigen